Location: Corralito
(10.2667°N, 66.9500°W)
Time: 22:45:53
(UTC+00:00)

Haruka - Visible Passes

Search period start: 29 November 2023 00:00
Search period end: 09 December 2023 00:00
Orbit: 551 x 21158 km, 31.2° (Epoch: 28 November)

Date Brightness Start Highest point End Pass type
(mag) Time Alt. Az. Time Alt. Az. Time Alt. Az.
29 Nov 7.9 00:14:26 10° WNW 01:40:55 27° WSW 05:05:22 10° SSE visible
29 Nov 7.7 18:16:20 10° NW 18:45:22 66° NE 23:10:01 10° SE visible
30 Nov 7.5 02:41:50 10° W 02:49:18 10° W 06:11:08 10° SSE visible
30 Nov 8.2 19:21:15 10° NW 20:08:05 83° NE 00:24:38 10° SE visible
01 Dec 6.9 07:04:36 10° SSW 07:12:43 13° S 07:17:17 10° SSE visible
01 Dec 8.6 20:27:09 10° WNW 21:36:31 79° WSW 01:35:07 10° SE visible
02 Dec 6.2 08:15:06 10° SSW 08:20:33 15° S 08:23:44 10° SE visible
02 Dec 8.4 21:34:54 10° WNW 22:59:57 60° WSW 02:43:25 10° SSE visible
03 Dec 4.9 09:21:16 10° SSW 09:26:22 24° SSE 09:29:21 10° E visible
03 Dec 8.1 22:46:28 10° WNW 00:16:59 41° WSW 03:50:31 10° SSE visible
05 Dec 7.7 00:08:17 10° W 01:29:52 24° WSW 04:57:01 10° SSE visible
05 Dec 7.6 18:06:30 10° NW 18:35:14 71° NE 22:59:46 10° SE visible
06 Dec 7.2 05:23:34 10° SW 05:53:58 17° S 06:03:19 10° SSE visible
06 Dec 8.2 19:11:22 10° WNW 19:56:23 88° NE 00:14:39 10° SE visible
07 Dec 6.7 06:52:58 10° SSW 07:04:18 16° S 07:09:29 10° SE visible
07 Dec 8.6 20:17:20 10° WNW 21:23:12 74° SW 01:25:31 10° SE visible
08 Dec 5.7 08:03:44 10° SSW 08:11:26 21° SSE 08:15:07 10° ESE visible
